[[{"header":{"parameterUnit":"m.s-1","parameterCategory":1,"la1":30.2991,"la2":30.254,"lo1":-89.0895,"lo2":-89.0444,"dy":0.0017,"dx":0.0017,"nx":28,"ny":28,"refTime":"2025-03-12T21:00:00:Z","depth":0,"parameterNumber":2,"parameterNumberName":"U-component_of_WINDS"},"data":[0,0,0,0,0,0,0,0,0,0,0,0,0,0,0,0,0,0,0,0,0,0,0,0,0,0,0,0,0,0,0,0,0,0,0,0,0,0,0,0,0,0,0,0,0,0,0,0,0,0,0,0,0,0,0,0,0,0,0.0128,0.0128,0,0.0124,0.0124,0.0124,0.0117,0.0117,0.0117,0.0116,0.0113,0.0113,0.0113,0,0,0,0,0,0,0,0,0,0,0,0,0,0.013,0.013,0.0128,0.0128,0.0128,0.0124,0.0124,0.0124,0.0117,0.0117,0.0117,0.0116,0.0113,0.0113,0.0113,0,0,0,0,0,0,0,0,0,0,0,0,0,0.0128,0.013,0.0128,0.0124,0.0123,0.0124,0.0124,0.0124,0.0117,0.0117,0.0116,0.0116,0.0113,0.0113,0.0113,0.0118,0,0,0.0113,0.0113,0,0,0,0,0,0,0,0,0.0128,0.0128,0.0124,0.0124,0.0123,0.0121,0.0123,0.0122,0.0117,0.0119,0.0116,0.0116,0.0116,0.0116,0.0115,0.0117,0.0117,0.0113,0.0113,0.0113,0.0113,0,0,0,0,0,0,0,0.0128,0.0128,0.0126,0.0124,0.0124,0.0122,0.0122,0.0123,0.0119,0.0119,0.0119,0.0118,0.0116,0.0115,0.0115,0.0117,0.0113,0.0113,0.0113,0.0113,0.0124,0.0124,0,0,0,0,0,0,0.0129,0.0128,0.0126,0.0126,0.0125,0.0122,0.0122,0.0122,0.0119,0.0118,0.0118,0.0118,0.0115,0.0115,0.0115,0.0121,0.0113,0.0113,0.0113,0.0123,0.0124,0.0124,0,0,0,0,0,0,0.0129,0.0128,0.0126,0.0127,0.0126,0.0123,0.0123,0.0122,0.0122,0.0118,0.0117,0.0119,0.0115,0.0115,0.0117,0.012,0.0113,0.0114,0.0123,0.0123,0.0124,0.0131,0,0,0,0,0,0,0.0129,0.0129,0.013,0.0127,0.0126,0.0128,0.0123,0.0122,0.0122,0.0121,0.0118,0.0118,0.0115,0.0117,0.0117,0.012,0.0114,0.0123,0.0123,0.0124,0.0131,0.0132,0.0133,0,0,0,0,0,0.0129,0.0132,0.013,0.013,0.0128,0.0129,0.0128,0.0125,0.0122,0.0124,0.0121,0.0118,0.012,0.0117,0.0117,0.0121,0.0123,0.0123,0.0124,0.013,0.0132,0.0133,0,0,0,0,0,0,0.0136,0.0132,0.0129,0.0132,0.0131,0.0127,0.0129,0.0126,0.0126,0.0125,0.0121,0.0121,0.0124,0.0122,0.0119,0.0125,0.0121,0.0121,0.0126,0.0127,0.0128,0.0129,0.0114,0,0,0,0,0,0.0138,0.0138,0.0135,0.0137,0.0137,0.0133,0.0133,0.0131,0.0129,0.0129,0.0127,0.0126,0.0126,0.0127,0.0127,0.0131,0.013,0.0133,0.0134,0.0135,0.0135,0.0138,0.0139,0.0126,0.0126,0.0126,0,0,0.0142,0.0139,0.014,0.0139,0.0137,0.0138,0.0133,0.0134,0.0135,0.0129,0.0131,0.0129,0.0128,0.0131,0.0133,0.013,0.0139,0.0135,0.0136,0.0136,0.0139,0.014,0.0141,0.0126,0.0126,0.0126,0,0,0.0149,0.0147,0.0149,0.0148,0.0147,0.0144,0.0145,0.0142,0.0141,0.0143,0.0139,0.014,0.014,0.014,0.0139,0.0147,0.0144,0.0147,0.0153,0.0156,0.0157,0.0158,0.0161,0.0162,0.0148,0.0148,0.0148,0,0.0154,0.0155,0.0151,0.0152,0.0152,0.0147,0.015,0.0149,0.0147,0.0147,0.0145,0.0146,0.0144,0.0148,0.015,0.015,0.015,0.0148,0.0157,0.0158,0.0158,0.0162,0.0163,0.0148,0.0148,0.0148,0.0148,0,0.0162,0.0162,0.0164,0.0163,0.0163,0.0165,0.0162,0.0162,0.016,0.0158,0.016,0.0158,0.0158,0.0159,0.0156,0.0162,0.0161,0.0157,0.0153,0.016,0.0163,0.0164,0.0149,0.0149,0.0149,0.0149,0,0,0.0173,0.017,0.0171,0.017,0.0168,0.0169,0.0171,0.0171,0.0171,0.0171,0.0172,0.0173,0.0171,0.017,0.0168,0.017,0.0177,0.0167,0.0167,0.0169,0.0184,0.0186,0.0188,0.0175,0.0175,0.0175,0.0184,0,0.0181,0.0183,0.018,0.0184,0.0185,0.018,0.0182,0.0181,0.018,0.018,0.0179,0.018,0.0176,0.0175,0.0177,0.0176,0.018,0.0175,0.0177,0.0177,0.0178,0.0189,0.0192,0.02,0.0185,0.0185,0.0185,0,0.0189,0.0189,0.0193,0.0191,0.0191,0.0193,0.0193,0.0194,0.0193,0.0191,0.0191,0.0188,0.0191,0.0186,0.0189,0.0186,0.0187,0.0186,0.0187,0.0187,0.0182,0.019,0.0203,0.0204,0.0187,0.0187,0.0187,0,0.0198,0.0199,0.0201,0.0201,0.0199,0.02,0.0199,0.0198,0.0198,0.0198,0.0199,0.0199,0.0199,0.02,0.0197,0.0194,0.0201,0.0196,0.02,0.0201,0.0202,0.0202,0.0216,0.0202,0.0202,0.0202,0.0202,0,0.0207,0.0209,0.0205,0.0207,0.021,0.0206,0.0209,0.0208,0.0207,0.0209,0.0205,0.0207,0.0203,0.0204,0.0202,0.0205,0.0205,0.0205,0.0204,0.0205,0.0206,0.0206,0.0206,0.0202,0.0202,0.0202,0.0202,0,0.0217,0.0214,0.0217,0.0214,0.0214,0.0216,0.0215,0.0216,0.0214,0.0217,0.0217,0.0214,0.0216,0.0213,0.0214,0.0213,0.0218,0.0216,0.0218,0.0218,0.0222,0.0222,0.0237,0.0239,0.0224,0.0224,0.0224,0,0.0223,0.0225,0.0223,0.0224,0.0223,0.0224,0.0225,0.0221,0.0222,0.0221,0.0223,0.0224,0.0225,0.0228,0.0226,0.0227,0.0226,0.0231,0.0226,0.0227,0.0227,0.0227,0.0227,0.0232,0.0232,0.0232,0.0232,0,0.0234,0.0232,0.0233,0.0233,0.0234,0.0234,0.0234,0.0235,0.0231,0.0232,0.0234,0.0235,0.0236,0.0237,0.0238,0.0237,0.0235,0.0234,0.0235,0.0236,0.0238,0.0238,0.0221,0.0234,0.0234,0.0233,0.0233,0.0233,0.0242,0.0244,0.0243,0.0244,0.0244,0.0244,0.0245,0.0244,0.0245,0.0246,0.0244,0.0246,0.0246,0.0246,0.0246,0.0248,0.0246,0.0247,0.0248,0.0248,0.0249,0.0237,0.0248,0.0248,0.0248,0.0248,0.0248,0,0.0253,0.0252,0.0253,0.0254,0.0255,0.0252,0.0252,0.0253,0.0255,0.0254,0.0255,0.0257,0.0259,0.0257,0.0259,0.0261,0.0259,0.0261,0.0261,0.0261,0.0251,0.025,0.0262,0.0262,0.0262,0.0262,0.0262,0.0262,0.0259,0.0262,0.0261,0.0264,0.0263,0.0265,0.0265,0.0266,0.0266,0.0268,0.0269,0.0268,0.0268,0.0269,0.0271,0.027,0.0271,0.0274,0.0273,0.0263,0.0262,0.0261,0.026,0.0274,0.0274,0.0283,0.0283,0.0283]},{"header":{"parameterUnit":"m.s-1","parameterCategory":1,"la1":30.2991,"la2":30.254,"lo1":-89.0895,"lo2":-89.0444,"dy":0.0017,"dx":0.0017,"nx":28,"ny":28,"refTime":"2025-03-12T21:00:00:Z","depth":0,"parameterNumber":3,"parameterNumberName":"V-component_of_WINDS"},"data":[0,0,0,0,0,0,0,0,0,0,0,0,0,0,0,0,0,0,0,0,0,0,0,0,0,0,0,0,0,0,0,0,0,0,0,0,0,0,0,0,0,0,0,0,0,0,0,0,0,0,0,0,0,0,0,0,0,0,2.0747,2.0748,0,2.082,2.0821,2.0822,2.0851,2.0851,2.085,2.085,2.0926,2.0928,2.093,0,0,0,0,0,0,0,0,0,0,0,0,0,2.0633,2.0635,2.0747,2.0748,2.0749,2.082,2.0821,2.0822,2.0851,2.0851,2.085,2.085,2.0925,2.0928,2.093,0,0,0,0,0,0,0,0,0,0,0,0,0,2.0692,2.0636,2.0747,2.0772,2.0775,2.082,2.0821,2.0822,2.0851,2.0851,2.085,2.085,2.0924,2.0927,2.0931,2.0957,0,0,2.0941,2.0942,0,0,0,0,0,0,0,0,2.0689,2.0696,2.0767,2.077,2.0773,2.0826,2.0809,2.0868,2.0851,2.0822,2.085,2.085,2.0893,2.0899,2.0913,2.096,2.0964,2.0941,2.0943,2.0945,2.0945,0,0,0,0,0,0,0,2.0685,2.0693,2.0776,2.0768,2.0772,2.078,2.0788,2.082,2.0858,2.0824,2.0827,2.0835,2.0895,2.091,2.0915,2.0965,2.0941,2.0944,2.0946,2.0947,2.1038,2.1039,0,0,0,0,0,0,2.0676,2.069,2.0774,2.0778,2.0729,2.0782,2.0791,2.0809,2.0858,2.0865,2.0835,2.0836,2.0904,2.0911,2.0918,2.0953,2.0945,2.0948,2.0949,2.1038,2.1038,2.1039,0,0,0,0,0,0,2.0674,2.0683,2.0771,2.0735,2.0746,2.0784,2.0805,2.0811,2.0826,2.0866,2.0873,2.0844,2.0905,2.0913,2.0947,2.0956,2.0949,2.0952,2.1037,2.1038,2.1039,2.1022,0,0,0,0,0,0,2.067,2.0682,2.0692,2.0735,2.0748,2.0798,2.0805,2.0813,2.0832,2.0834,2.0876,2.0883,2.0905,2.0942,2.095,2.096,2.0955,2.1037,2.1038,2.1038,2.1022,2.1022,2.1022,0,0,0,0,0,2.0666,2.0685,2.0693,2.0703,2.0761,2.0799,2.0807,2.0832,2.0832,2.0843,2.0869,2.0881,2.0953,2.0945,2.0955,2.0966,2.1036,2.1037,2.1038,2.1022,2.1022,2.1022,0,0,0,0,0,0,2.0643,2.0691,2.07,2.0733,2.0761,2.0804,2.0818,2.0831,2.086,2.0861,2.0891,2.09,2.0932,2.0952,2.0942,2.0994,2.0996,2.0999,2.098,2.098,2.098,2.0975,2.0957,0,0,0,0,0,2.0641,2.0667,2.0708,2.0733,2.0747,2.078,2.0797,2.0814,2.0845,2.0857,2.0885,2.0915,2.0945,2.0963,2.0992,2.1024,2.1035,2.1037,2.1037,2.1036,2.1039,2.1058,2.106,2.1042,2.1042,2.1042,0,0,2.0639,2.0668,2.0683,2.0729,2.0753,2.078,2.079,2.0817,2.0838,2.0862,2.0896,2.0917,2.0952,2.0986,2.1002,2.1004,2.1046,2.1038,2.1037,2.104,2.106,2.1061,2.1063,2.1043,2.1043,2.1043,0,0,2.0648,2.0672,2.0696,2.0721,2.0757,2.0779,2.0785,2.0825,2.084,2.0874,2.0893,2.0918,2.0967,2.0992,2.1011,2.103,2.1043,2.1039,2.1039,2.1058,2.1059,2.1061,2.1068,2.1071,2.1041,2.1041,2.1041,0,2.064,2.0681,2.0707,2.0734,2.0754,2.0777,2.0802,2.0824,2.0868,2.0881,2.0883,2.0946,2.0972,2.1011,2.1016,2.103,2.1038,2.1035,2.1057,2.1059,2.106,2.1068,2.1071,2.104,2.104,2.104,2.104,0,2.0671,2.0699,2.0714,2.0756,2.0778,2.0803,2.0834,2.0852,2.0867,2.0889,2.0924,2.0955,2.0992,2.1002,2.1017,2.1044,2.1045,2.1051,2.1053,2.1061,2.1069,2.1072,2.1039,2.1039,2.104,2.104,0,0,2.0668,2.0724,2.0729,2.0749,2.0791,2.0813,2.084,2.0876,2.0892,2.0921,2.0945,2.0987,2.0993,2.1015,2.1033,2.1049,2.1063,2.1054,2.1055,2.1055,2.1097,2.1092,2.1095,2.1072,2.1072,2.1073,2.1094,0,2.0683,2.0732,2.0757,2.0796,2.0822,2.0844,2.0868,2.0896,2.0917,2.0944,2.0967,2.0996,2.1002,2.1015,2.1032,2.1058,2.1072,2.1056,2.1095,2.1096,2.1087,2.1099,2.1095,2.1113,2.1097,2.1098,2.1098,0,2.0708,2.0738,2.0779,2.0819,2.0831,2.0852,2.0887,2.0911,2.0944,2.0959,2.0983,2.1,2.103,2.103,2.1072,2.106,2.1077,2.1092,2.1094,2.1099,2.1098,2.1106,2.112,2.1123,2.1103,2.1102,2.1102,0,2.0703,2.0753,2.0785,2.0801,2.0848,2.0862,2.0882,2.0915,2.0935,2.0965,2.0979,2.1012,2.1031,2.1056,2.1082,2.1079,2.1122,2.1124,2.1136,2.1135,2.1145,2.1144,2.1162,2.1153,2.1153,2.1153,2.1153,0,2.0719,2.0743,2.0784,2.0803,2.0832,2.0859,2.0887,2.0909,2.0938,2.0963,2.0983,2.1006,2.1038,2.1065,2.1086,2.1118,2.1126,2.1139,2.1144,2.1138,2.1136,2.115,2.115,2.1154,2.1154,2.1154,2.1154,0,2.0718,2.0746,2.0782,2.0823,2.0834,2.0854,2.0889,2.0909,2.0931,2.0962,2.0971,2.1006,2.1039,2.1067,2.111,2.1124,2.1158,2.1164,2.1147,2.115,2.1161,2.116,2.119,2.1195,2.1181,2.1182,2.1182,0,2.0726,2.0746,2.079,2.0808,2.0828,2.0856,2.0877,2.0905,2.0925,2.0965,2.0981,2.1015,2.1044,2.1095,2.1125,2.1158,2.1166,2.1174,2.1171,2.1164,2.1167,2.1166,2.1169,2.1174,2.1174,2.1174,2.1174,0,2.0739,2.0752,2.0781,2.0815,2.0839,2.0867,2.0895,2.0909,2.0942,2.0965,2.0999,2.1021,2.1065,2.1099,2.1136,2.1157,2.1172,2.1175,2.1179,2.1174,2.1163,2.117,2.1148,2.1174,2.1174,2.1174,2.1174,2.1174,2.0744,2.0763,2.0797,2.0829,2.0853,2.088,2.0901,2.0926,2.0954,2.0993,2.1008,2.1042,2.1076,2.1126,2.1148,2.1176,2.1178,2.1184,2.1186,2.1188,2.1187,2.1158,2.1182,2.1182,2.1182,2.1182,2.1182,0,2.0759,2.0782,2.0811,2.085,2.0875,2.0886,2.0919,2.0939,2.097,2.0999,2.1027,2.1067,2.11,2.1132,2.1167,2.1183,2.1191,2.1192,2.1192,2.1196,2.1183,2.1176,2.1185,2.1185,2.1185,2.1185,2.1185,2.1185,2.077,2.0803,2.0819,2.0865,2.0888,2.0922,2.094,2.0965,2.0989,2.1032,2.106,2.108,2.1111,2.1149,2.118,2.1189,2.1201,2.1201,2.1211,2.1198,2.1197,2.1197,2.119,2.1203,2.1203,2.1223,2.1223,2.1223]}]]